Miscellaneous Local Product
Issued by NWS Hastings, NE

Home | Current Version | Previous Version | Text Only | Print | Product List | Glossary Off
Versions: 1 2 3 4 5 6 7 8 9 10 11 12 13 14 15 16 17 18 19 20 21 22 23 24 25 26 27 28 29 30 31 32 33 34 35 36 37 38 39 40 41 42 43 44 45 46 47 48 49 50

000
AXUS43 KGID 240802
MISGRI

GID CWA HOURLY WEATHER ROUNDUP
NATIONAL WEATHER SERVICE HASTINGS NE
200 AM CST WED DEC 24 2014

NOTE: "FAIR" INDICATES FEW OR NO CLOUDS BELOW 12,000 FEET WITH NO
SIGNIFICANT WEATHER AND/OR OBSTRUCTIONS TO VISIBILITY.

...SOUTH CENTRAL NEBRASKA...

CITY           SKY/WX    TMP DP  RH WIND       PRES   REMARKS
GRAND ISLAND   CLOUDY    29  24  82 NW17G26   29.98F WCI  17
HASTINGS       CLOUDY    29  24  82 NW20      29.97F WCI  16
KEARNEY        CLOUDY    28  23  80 NW18      29.99F WCI  16
ORD            CLOUDY    27  23  85 N18G25    30.00S WCI  14
YORK           CLOUDY    32  28  86 N13G23    29.95F WCI  22
AURORA         CLOUDY    31  27  88 NW20G26   29.96F WCI  18
LEXINGTON      FAIR      28  24  85 NW10      30.02S WCI  18
HOLDREGE       CLOUDY    30  25  81 N13G20    30.00S WCI  20
HEBRON         CLOUDY    32  27  80 N15G29    29.95F WCI  22

...NEBRASKA PANHANDLE...

CITY           SKY/WX    TMP DP  RH WIND       PRES   REMARKS
CHADRON        FAIR       4   0  83 SW8       30.04F WCI  -9
ALLIANCE       FAIR      10   6  84 CALM      30.02F
SCOTTSBLUFF    FAIR      15  11  83 NW7       30.04F WCI   5
SIDNEY         FAIR      15  10  80 W10       30.04F WCI   2

...WESTERN AND NORTH CENTRAL NEBRASKA...

CITY           SKY/WX    TMP DP  RH WIND       PRES   REMARKS
VALENTINE      FAIR      16  12  84 W9        30.02F WCI   4
AINSWORTH      CLOUDY    24  23  93 NW9       30.01F WCI  15
ONEILL         CLOUDY    27  26  96 NW14G21   30.00F WCI  15
BROKEN BOW     MOCLDY    28  23  81 N18G24    30.00F WCI  15
IMPERIAL       FAIR      20  14  77 NW12      30.07F WCI   8
NORTH PLATTE   FAIR      18  15  88 NW6       30.04F WCI  10
MCCOOK         FAIR      23  17  78 W10       30.05F WCI  12

...EASTERN NEBRASKA...

CITY           SKY/WX    TMP DP  RH WIND       PRES   REMARKS
NORFOLK        CLOUDY    30  27  88 NW22      29.95F WCI  17
SO SIOUX CITY  CLOUDY    34  31  88 NW18      29.91F WCI  23
TEKAMAH        CLOUDY    35  31  85 NW15G26   29.91F WCI  25
COLUMBUS       CLOUDY    30  25  80 NW20G31   29.96S WCI  18
ALBION         CLOUDY    29  25  84 N17G26    29.98S WCI  17
OMAHA EPPLEY   FLURRIES  35  32  88 N17G31    29.89F WCI  25
OFFUTT AFB     FLURRIES  35  32  88 NW16G24   29.87F WCI  25
MILLARD        CLOUDY    35  32  90 NW16G23   29.90S WCI  25
LINCOLN        CLOUDY    33  29  85 N21       29.93F WCI  21
NEBRASKA CITY  CLOUDY    33  33 100 N21       29.87S WCI  21
BEATRICE       CLOUDY    33  31  92 N18G25    29.92S WCI  21
FALLS CITY     MIX PCPN  35  34  96 NW13      29.86S WCI  26

...NORTHERN KANSAS...

CITY           SKY/WX    TMP DP  RH WIND       PRES   REMARKS
GOODLAND       FAIR      20  15  81 NW14      30.07F WCI   7
HILL CITY      FAIR      28  21  75 NW14      30.04S WCI  17
NORTON         SUNNY     25  19  80 NW12      30.01S WCI  14
PHILLIPSBURG   PTCLDY    32  27  80 NW12      30.01F WCI  23
SMITH CENTER   PTCLDY    30  25  80 NW17G24   29.99F WCI  18
BELOIT         CLOUDY    32  27  80 NW13      29.98R WCI  22
HAYS           CLOUDY    30  18  59 NW17G24   30.01R WCI  18
RUSSELL        CLOUDY    31  26  82 NW22G28   29.99S WCI  18
CONCORDIA      CLOUDY    32  28  85 N12       29.95F WCI  23
SALINA         FLURRIES  34  29  82 NW17      29.96F WCI  23
TOPEKA         FLURRIES  37  34  89 NW14      29.87F WCI  28



USA.gov is the U.S. government's official web portal to all federal, state and local government web resources and services.